GEFSMW_850_meantemp_054.txt.gz
Temperature
16 16 16 16 16 16 17 17 17 17 17 17 17 17 16 16 16 16 16 16 15 15 15 14 14 13 12 12 12 11 11 11 11 11 11 11 11 11 11 10 10 9 8
15 15 15 15 16 16 16 16 16 16 16 17 17 17 17 17 17 17 16 16 16 15 15 15 14 14 13 12 12 11 11 11 11 11 11 10 10 11 11 10 10 9 8
14 15 15 15 15 16 16 16 16 16 16 16 16 16 16 16 16 16 16 16 16 16 15 15 15 14 14 13 13 12 11 11 11 11 11 11 11 11 10 10 10 9 8
13 14 14 15 15 15 15 15 16 16 16 16 16 16 16 15 16 16 16 16 16 16 16 15 15 15 14 14 13 12 12 11 11 11 11 10 11 10 10 9 9 9 8
12 13 13 14 14 14 15 15 15 15 15 15 15 15 15 15 15 15 15 16 16 16 15 15 15 15 14 14 13 13 12 11 11 11 11 10 10 10 9 9 9 8 8
12 12 13 13 13 14 14 14 15 15 15 15 15 15 15 15 15 15 15 15 15 15 15 15 15 15 14 14 14 13 12 11 11 10 10 10 10 9 9 8 8 7 7
11 12 12 12 12 13 13 13 14 14 14 14 14 15 15 15 15 15 15 15 15 15 15 15 15 15 14 14 13 12 12 11 10 10 9 9 9 8 8 7 7 6 5
11 11 11 11 11 12 12 12 13 13 13 14 14 14 14 14 14 14 14 14 14 14 14 14 14 14 14 13 12 12 11 10 9 9 8 8 7 7 6 6 5 4 4
10 10 10 10 10 10 11 11 11 12 12 13 13 13 13 13 13 13 13 13 13 14 13 13 13 13 13 12 12 11 10 9 8 7 7 6 6 5 5 4 4 3 2
9 9 9 9 9 9 9 10 10 10 11 11 12 12 13 13 13 13 13 12 12 12 12 12 12 12 11 11 10 9 8 8 7 6 5 5 4 4 4 3 2 2 1
8 8 8 8 8 8 8 9 9 9 10 10 11 11 12 12 12 12 11 11 11 11 11 11 10 10 10 10 9 8 7 6 5 5 4 4 3 3 2 1 1 1 -0
7 7 7 7 7 7 7 8 8 9 9 9 10 10 10 10 10 10 10 10 9 9 9 9 9 9 9 8 7 6 5 4 4 3 3 3 2 2 1 0 -0 -1 -1
6 6 6 6 6 6 6 7 7 7 8 8 9 9 9 9 9 9 9 9 8 8 8 8 8 7 7 6 5 4 4 3 3 2 2 2 1 1 -0 -1 -1 -2 -2
5 4 4 5 5 5 5 6 6 6 7 7 7 8 8 8 7 8 8 7 7 7 7 6 6 5 4 4 3 3 3 2 2 2 1 1 0 -0 -1 -1 -2 -3 -3
3 3 3 4 4 4 5 5 5 5 5 6 6 6 6 6 6 6 6 5 5 5 5 4 3 3 2 2 2 2 2 2 1 1 1 0 -0 -1 -2 -2 -3 -4 -5
2 2 2 3 3 3 3 4 4 4 4 4 4 4 4 4 4 4 4 3 3 2 2 2 2 1 1 1 1 1 1 1 0 -0 -0 -1 -1 -2 -3 -3 -4 -5 -6
1 1 1 1 2 2 2 3 2 2 3 3 2 2 3 2 2 2 2 1 1 1 1 1 0 0 0 1 1 1 0 -0 -1 -1 -1 -2 -3 -3 -4 -4 -5 -5 -6
1 1 1 1 1 1 1 2 1 1 1 1 1 1 1 1 0 0 0 -0 -0 -0 -0 -0 -0 -0 -0 -0 -0 -1 -1 -1 -2 -2 -3 -3 -4 -4 -5 -6 -6 -6 -6
1 0 -0 0 0 0 0 1 0 0 0 -0 -0 -1 -0 -1 -1 -1 -1 -1 -1 -1 -1 -0 -1 -1 -1 -1 -2 -2 -2 -3 -3 -3 -4 -4 -5 -5 -6 -7 -7 -7 -7
0 -0 -0 -0 -0 -0 -0 -0 -0 -1 -1 -1 -1 -1 -1 -1 -1 -1 -1 -1 -1 -1 -1 -1 -1 -2 -2 -2 -3 -3 -3 -4 -4 -5 -5 -5 -6 -6 -7 -8 -8 -7 -7
0 -0 -1 -1 -1 -1 -1 -1 -1 -1 -1 -1 -1 -1 -1 -1 -1 -1 -1 -1 -1 -1 -1 -1 -2 -2 -3 -4 -4 -4 -5 -5 -5 -5 -6 -6 -6 -7 -8 -8 -8 -8 -8
-0 -0 -1 -1 -1 -1 -1 -1 -1 -1 -1 -1 -1 -1 -1 -1 -1 -1 -1 -1 -1 -1 -2 -2 -3 -3 -4 -4 -5 -5 -6 -6 -6 -6 -6 -7 -7 -8 -8 -8 -8 -8 -8
0 -0 -1 -1 -1 -1 -1 -1 -1 -1 -1 -1 -1 -1 -1 -1 -1 -1 -1 -2 -2 -2 -3 -3 -4 -4 -4 -5 -5 -6 -6 -7 -7 -7 -7 -8 -7 -7 -7 -7 -8 -8 -8
0 -0 -0 -1 -1 -1 -1 -1 -1 -1 -1 -1 -1 -1 -1 -1 -1 -2 -2 -2 -3 -3 -3 -4 -4 -5 -5 -6 -6 -7 -7 -7 -7 -7 -7 -7 -8 -8 -8 -8 -8 -8 -8
1 1 0 0 -0 -0 -0 -1 -1 -1 -1 -1 -1 -1 -1 -2 -2 -2 -2 -3 -3 -4 -4 -4 -5 -5 -6 -7 -7 -8 -8 -8 -8 -8 -8 -8 -8 -8 -8 -8 -8 -8 -8
1 1 1 1 0 -0 -0 -0 -1 -1 -1 -1 -1 -1 -2 -2 -2 -3 -3 -3 -4 -4 -5 -5 -6 -6 -7 -7 -7 -8 -8 -8 -8 -8 -8 -8 -8 -8 -8 -8 -7 -8 -8

GEFSMW_850_meantemp_060.txt.gz
Temperature
14 14 15 15 16 16 16 16 16 17 16 16 16 16 17 17 17 17 17 17 16 16 15 15 14 14 14 13 13 12 12 12 11 11 11 10 11 11 11 11 10 10 10
13 12 14 14 15 15 15 16 16 16 16 16 16 16 16 16 17 17 17 17 17 16 16 15 15 14 14 13 13 12 12 12 11 11 10 10 10 11 11 11 10 10 10
11 11 12 13 14 14 15 15 15 15 16 15 15 15 15 15 15 16 16 17 17 16 16 15 15 14 14 14 13 13 12 12 12 11 10 10 10 10 11 11 11 10 10
10 10 11 11 12 13 14 14 14 15 15 15 15 15 14 14 15 15 15 16 16 16 15 15 14 14 14 13 13 13 13 12 11 11 11 11 11 11 11 11 11 10 9
10 10 10 11 12 12 13 13 14 14 14 14 14 14 14 14 14 14 14 14 14 15 15 14 14 13 13 13 13 13 12 12 11 12 11 11 10 10 10 10 10 10 9
9 9 10 11 11 12 12 13 13 13 13 14 14 14 14 13 13 13 13 14 14 14 14 14 13 13 13 13 13 12 12 12 11 11 11 11 10 10 10 9 9 9 9
9 9 10 10 11 11 12 12 12 12 13 13 13 13 13 13 13 13 13 13 13 13 13 13 13 13 12 12 12 12 12 11 11 11 11 11 10 10 10 9 8 8 7
9 8 9 9 10 10 10 11 11 11 12 12 12 12 12 12 12 12 12 12 12 12 13 13 12 12 12 11 11 11 11 11 11 10 10 10 10 9 9 8 7 6 5
8 8 8 8 9 9 9 9 10 10 10 11 11 11 11 12 12 12 12 12 12 12 12 12 12 11 11 10 10 10 10 10 10 10 9 9 9 8 8 7 6 5 5
7 7 7 7 7 8 8 8 8 9 9 9 10 10 10 11 11 11 11 11 11 11 11 11 11 10 10 10 9 9 9 9 9 9 8 8 7 7 6 5 5 4 4
7 6 6 6 6 6 7 7 7 8 8 8 9 9 9 9 10 10 10 10 10 10 10 10 10 10 9 9 9 9 9 9 8 8 7 7 6 5 4 4 3 3 3
6 5 5 5 5 6 6 6 6 7 7 7 7 8 8 8 8 8 9 9 9 9 9 9 9 8 8 8 8 8 8 7 7 6 6 5 4 3 3 2 2 2 1
5 4 4 4 4 5 5 5 6 6 6 6 6 7 7 7 7 7 7 7 7 7 7 7 7 7 7 7 7 6 6 5 5 4 3 3 2 2 2 1 1 1 0
4 4 3 3 4 4 4 4 5 5 5 5 5 5 5 5 5 5 6 6 6 6 6 6 6 6 5 5 5 4 4 3 3 2 2 1 1 1 1 0 -0 -1 -1
3 3 3 3 3 3 3 3 4 4 4 4 4 4 4 4 4 4 4 4 4 4 4 4 4 4 3 3 3 3 2 2 1 1 1 0 0 -0 -0 -1 -1 -2 -3
3 2 2 2 2 2 2 2 3 3 3 3 3 3 3 3 2 3 3 2 2 2 2 2 1 1 1 1 1 1 1 1 0 0 -0 -1 -1 -1 -1 -2 -2 -3 -4
2 2 1 1 1 1 1 2 2 2 2 2 2 2 2 1 1 1 1 1 0 0 0 0 -0 -0 -0 -1 -0 -0 -0 -1 -1 -1 -1 -2 -2 -2 -3 -3 -3 -4 -4
2 1 1 1 1 1 1 1 1 1 1 1 1 1 1 0 0 0 0 -0 -1 -1 -1 -1 -1 -1 -1 -1 -1 -1 -1 -2 -2 -2 -3 -3 -3 -3 -3 -4 -4 -5 -5
2 1 1 0 0 0 0 0 0 0 0 0 -0 -0 -0 -0 -0 -0 -1 -1 -1 -1 -1 -1 -1 -2 -2 -2 -2 -2 -2 -3 -3 -3 -3 -4 -4 -4 -5 -5 -5 -6 -6
1 1 0 0 -0 -0 -0 -0 -0 -0 -0 -1 -1 -1 -1 -1 -1 -1 -1 -1 -1 -1 -1 -2 -2 -2 -3 -3 -3 -3 -3 -4 -4 -4 -4 -4 -5 -5 -6 -6 -6 -7 -7
1 1 0 -0 -0 -0 -1 -1 -1 -1 -1 -1 -1 -1 -1 -1 -1 -1 -1 -1 -1 -1 -2 -2 -2 -3 -3 -4 -4 -4 -4 -5 -5 -5 -6 -6 -6 -6 -7 -7 -7 -7 -7
1 1 0 -0 -0 -1 -1 -1 -1 -1 -1 -1 -1 -1 -1 -1 -1 -1 -1 -1 -2 -2 -2 -3 -3 -4 -4 -4 -5 -5 -5 -6 -6 -6 -7 -7 -6 -7 -7 -7 -7 -7 -7
1 1 0 -0 -0 -1 -1 -1 -1 -1 -1 -1 -1 -1 -1 -1 -1 -1 -1 -2 -2 -2 -3 -4 -4 -4 -5 -5 -5 -6 -6 -6 -7 -7 -7 -7 -7 -7 -7 -7 -7 -7 -7
1 1 0 0 -0 -0 -1 -0 -0 -1 -1 -1 -1 -1 -1 -1 -1 -2 -2 -2 -3 -3 -4 -4 -5 -5 -6 -6 -6 -7 -7 -7 -7 -7 -7 -7 -7 -7 -7 -7 -7 -7 -7
2 1 1 0 0 0 -0 -0 -0 -1 -1 -1 -1 -1 -1 -1 -2 -2 -2 -3 -3 -3 -4 -5 -5 -6 -6 -7 -7 -7 -8 -8 -8 -7 -7 -7 -7 -7 -7 -7 -7 -7 -7
2 1 1 1 0 0 -0 -0 -0 -1 -1 -1 -1 -1 -1 -2 -2 -2 -3 -3 -3 -4 -4 -5 -5 -6 -6 -7 -7 -7 -8 -7 -7 -7 -8 -8 -8 -8 -7 -7 -7 -8 -8

GEFSMW_850_meantemp_066.txt.gz
Temperature
18 17 17 17 16 16 16 16 16 16 16 15 15 15 16 16 16 16 16 16 15 15 14 14 14 13 13 13 13 12 12 12 11 11 11 11 11 11 11 11 11 11 11
16 16 15 15 15 15 15 15 16 16 16 15 15 15 15 15 16 16 16 16 15 15 14 14 13 13 13 13 12 12 12 12 11 11 11 10 10 11 11 11 11 11 11
15 14 14 13 14 14 14 14 15 15 15 15 15 15 15 15 14 15 15 15 15 15 14 14 13 13 12 12 12 12 12 12 11 11 11 11 11 11 11 11 11 11 10
13 13 12 12 12 12 13 14 14 14 15 15 15 15 14 14 14 14 14 14 14 14 14 13 13 13 12 12 12 12 12 11 11 11 11 11 11 11 11 11 10 10 9
12 11 11 11 11 12 12 13 13 13 14 14 14 14 14 13 13 13 13 13 13 13 13 13 12 12 12 12 12 12 12 11 11 11 11 10 10 10 11 10 10 10 9
11 11 10 10 10 11 11 12 12 12 12 13 13 13 13 13 13 13 13 13 13 12 12 12 12 12 12 11 11 11 11 11 11 11 11 10 10 10 10 10 10 10 9
11 10 10 10 10 10 10 10 11 11 11 11 11 11 11 12 12 12 12 12 12 12 12 12 12 12 11 11 11 11 11 11 11 11 10 10 10 10 10 9 9 8 8
10 10 9 9 9 9 10 10 10 10 10 10 10 10 10 10 11 11 11 11 11 11 11 11 11 11 11 11 11 10 10 10 10 10 10 10 9 9 9 9 8 7 7
10 9 9 9 9 9 9 9 9 9 9 9 9 9 9 9 10 10 10 10 10 10 10 10 10 10 10 10 10 10 10 10 10 9 9 9 9 9 8 8 8 7 6
10 9 9 8 8 8 8 8 8 8 8 8 8 8 8 8 8 9 9 9 9 9 9 9 10 10 10 10 9 9 9 9 9 9 8 8 8 8 8 7 7 6 5
9 8 8 7 7 7 7 7 7 7 7 7 7 7 7 7 8 8 8 8 8 8 8 8 9 9 9 8 8 8 8 8 8 8 7 7 7 7 6 6 5 5 4
9 8 7 7 6 6 6 6 6 6 6 6 6 6 6 6 7 7 7 7 7 7 7 7 8 8 7 7 7 7 7 7 7 6 6 6 5 5 5 4 4 3 3
8 7 6 6 5 5 5 5 5 5 5 5 5 5 5 5 6 6 6 6 6 6 6 6 6 6 6 6 6 6 6 5 5 5 4 4 4 4 3 3 2 2 2
8 7 6 5 5 4 4 4 4 4 4 4 5 5 5 5 5 5 5 5 5 5 5 5 5 5 5 4 4 4 4 4 3 3 3 2 2 2 1 1 1 0 0
7 6 5 4 4 3 3 3 3 3 3 4 4 4 3 3 3 4 4 4 4 4 3 3 3 3 3 3 3 3 3 2 2 2 1 1 1 0 -0 -0 -1 -1 -1
7 5 4 4 3 3 2 3 3 2 2 3 3 3 2 2 3 3 3 3 2 2 2 2 2 2 2 1 1 1 1 1 1 0 -0 -0 -1 -1 -1 -1 -2 -2 -2
6 5 4 3 2 2 2 2 2 2 2 2 2 2 2 2 2 2 2 1 1 1 1 1 1 1 0 0 0 -0 -0 -0 -1 -1 -1 -1 -2 -2 -2 -3 -3 -3 -4
5 4 3 2 2 2 1 1 1 1 1 1 1 1 1 1 1 1 1 1 0 0 0 -0 -0 -0 -1 -1 -1 -1 -1 -1 -2 -2 -2 -3 -3 -3 -3 -4 -4 -4 -4
5 4 3 2 1 1 1 0 0 1 1 1 0 0 1 1 1 0 0 0 -0 -0 -0 -1 -1 -1 -1 -1 -2 -2 -2 -3 -3 -3 -3 -3 -4 -4 -5 -5 -5 -5 -6
4 3 2 2 1 1 0 0 0 0 0 0 0 0 0 0 0 0 -0 -0 -0 -1 -1 -1 -2 -2 -2 -2 -3 -3 -3 -3 -4 -4 -4 -5 -5 -5 -5 -6 -6 -6 -6
3 3 2 1 1 0 -0 -0 0 0 0 -0 -0 -0 -0 0 -0 -0 -0 -1 -1 -1 -2 -2 -2 -2 -3 -3 -3 -4 -4 -4 -5 -5 -5 -5 -6 -6 -6 -6 -6 -6 -6
3 2 2 1 1 0 0 0 -0 0 -0 -0 -0 -0 -0 -0 -0 -0 -1 -1 -1 -2 -2 -3 -3 -3 -3 -4 -4 -4 -5 -5 -5 -5 -5 -6 -6 -6 -6 -6 -6 -6 -6
3 2 2 1 1 0 0 0 0 0 -0 -0 -0 -0 -0 -0 -0 -1 -1 -1 -2 -2 -3 -3 -3 -3 -4 -4 -4 -5 -5 -5 -5 -6 -6 -6 -6 -6 -6 -6 -6 -6 -6
3 2 2 1 1 1 0 0 0 -0 -0 -0 -0 -0 -0 -0 -1 -1 -1 -1 -2 -2 -2 -3 -3 -4 -4 -4 -5 -5 -5 -5 -6 -6 -6 -6 -6 -6 -6 -6 -7 -7 -7
3 2 2 2 1 1 1 0 0 -0 -0 -0 -0 -0 -0 -0 -1 -1 -1 -1 -2 -2 -2 -3 -3 -4 -4 -4 -5 -5 -5 -6 -6 -6 -6 -6 -6 -6 -7 -7 -7 -7 -7
3 2 2 2 1 1 1 1 0 0 -0 -0 -0 -0 -0 -0 -1 -1 -1 -2 -2 -2 -3 -3 -3 -4 -4 -5 -5 -5 -5 -6 -6 -6 -6 -6 -7 -7 -7 -7 -7 -7 -7

GEFSMW_850_meantemp_072.txt.gz
Temperature
17 17 17 17 17 17 17 16 16 16 16 15 15 15 15 15 15 15 15 15 14 14 14 14 14 13 13 13 13 12 12 12 12 12 11 12 11 11 11 11 11 11 11
16 16 16 16 16 16 16 16 16 16 16 15 15 15 15 15 15 15 15 14 14 14 14 13 13 13 13 13 13 12 12 12 12 12 11 11 11 12 12 12 11 11 11
15 15 15 15 16 16 16 16 15 15 15 15 15 15 15 15 14 14 14 14 14 14 14 13 13 13 13 13 13 12 12 12 12 12 11 11 11 11 12 12 11 11 11
14 14 14 14 15 15 15 15 15 15 15 15 14 14 14 14 14 14 14 14 14 13 13 13 13 13 12 12 12 12 12 11 11 11 11 11 11 10 11 11 11 11 11
13 13 13 13 13 13 13 13 14 14 14 14 14 14 14 14 13 13 13 13 13 13 13 12 12 12 12 12 12 12 11 11 11 11 11 10 10 10 10 10 10 10 10
12 12 12 12 12 12 12 12 12 12 13 13 13 13 13 13 13 13 12 12 12 12 12 12 12 12 12 12 11 11 11 11 11 10 10 10 10 9 9 9 9 9 9
11 11 11 11 11 11 11 11 11 11 11 12 12 12 12 12 12 12 12 12 12 12 11 11 11 11 11 11 11 11 11 10 10 10 10 10 9 9 9 8 8 8 8
11 11 10 10 10 10 10 10 10 10 10 10 10 10 10 10 10 10 10 11 11 11 11 11 11 10 10 10 10 10 10 10 10 10 9 9 9 9 8 8 8 7 7
10 10 10 10 9 9 9 9 9 9 9 9 9 9 9 9 9 9 9 9 9 9 9 10 10 10 10 10 9 9 9 9 9 9 9 8 8 8 8 7 7 7 6
10 10 9 9 9 9 8 8 8 8 8 8 8 8 8 8 8 8 8 8 8 8 8 9 9 9 9 9 9 9 9 9 8 8 8 7 7 7 7 6 6 6 6
10 9 9 9 8 8 8 8 7 7 7 7 7 7 7 7 7 7 7 7 7 7 7 8 8 8 8 8 8 8 8 7 7 7 7 6 6 6 6 5 5 5 5
10 9 9 8 8 7 7 7 7 7 7 6 6 6 6 6 6 6 6 6 6 7 7 7 7 7 7 7 7 7 6 6 6 6 5 5 5 5 5 4 4 4 4
9 9 8 8 7 7 7 6 6 6 6 6 6 5 5 5 5 5 5 6 6 6 6 6 6 6 6 6 6 5 5 5 5 5 4 4 4 4 3 3 3 3 2
9 9 8 8 7 6 6 6 5 5 5 5 5 5 5 5 5 5 5 5 5 5 5 5 4 4 4 4 4 4 4 4 4 4 3 3 3 2 2 2 2 1 1
9 8 8 7 6 6 5 5 5 4 4 4 4 4 4 4 4 4 4 4 3 4 3 3 3 3 3 3 3 3 3 3 3 2 2 2 1 1 1 0 0 -0 -0
9 8 8 7 6 5 5 4 4 4 3 3 3 3 3 3 3 3 3 2 3 3 2 2 2 2 2 2 2 2 2 2 1 1 1 0 -0 -0 -1 -1 -1 -1 -1
9 8 7 7 6 5 4 4 3 3 3 3 3 3 2 2 2 2 2 2 1 2 1 1 1 2 2 1 1 1 1 1 0 0 -0 -1 -1 -1 -1 -2 -2 -2 -3
9 8 7 6 5 4 3 3 3 2 2 2 2 2 2 2 1 1 1 1 1 1 1 1 1 1 1 0 0 0 -0 -0 -1 -1 -1 -2 -2 -2 -3 -2 -3 -3 -4
9 8 7 6 5 4 3 2 2 2 1 1 1 1 1 1 1 1 0 0 0 -0 0 0 -0 -0 -0 -0 -1 -1 -1 -1 -1 -2 -2 -3 -3 -4 -4 -4 -4 -4 -4
7 7 6 5 4 3 2 2 1 1 1 1 1 1 1 0 0 0 -0 -0 -0 -0 -0 -1 -1 -1 -1 -1 -2 -2 -2 -2 -2 -3 -3 -3 -4 -5 -5 -5 -5 -5 -5
6 6 5 4 3 2 2 1 1 1 1 1 0 0 0 0 -0 -0 -0 -0 -1 -1 -1 -1 -1 -2 -2 -2 -2 -2 -3 -3 -3 -3 -4 -4 -4 -5 -5 -5 -5 -5 -6
6 5 4 3 3 2 2 1 1 1 0 0 0 0 0 -0 -0 -0 -0 -1 -1 -1 -1 -1 -2 -2 -2 -2 -3 -3 -3 -4 -4 -4 -4 -4 -5 -5 -5 -5 -6 -6 -6
5 4 4 3 2 2 2 1 1 0 0 0 0 -0 -0 -0 -0 -0 -1 -1 -1 -1 -1 -2 -2 -2 -2 -3 -3 -3 -4 -4 -4 -4 -5 -5 -5 -5 -5 -6 -6 -6 -6
4 4 3 3 3 2 2 1 1 0 0 0 -0 -0 -0 -0 -0 -1 -1 -1 -1 -1 -2 -2 -2 -2 -3 -3 -3 -3 -4 -4 -4 -5 -5 -5 -5 -6 -6 -6 -6 -6 -6
4 4 3 3 3 2 2 1 1 0 0 0 -0 -0 -0 -0 -1 -1 -1 -1 -1 -1 -2 -2 -2 -2 -3 -3 -3 -4 -4 -4 -5 -5 -5 -5 -5 -6 -6 -6 -6 -7 -7
4 3 3 3 3 2 2 1 1 0 0 0 0 -0 -0 -0 -1 -1 -1 -1 -1 -1 -2 -2 -2 -2 -3 -3 -3 -4 -4 -5 -5 -5 -5 -5 -6 -6 -6 -6 -7 -7 -7